Regional Weather Roundup
Issued by NWS

Home | Current Version | Previous Version | Text Only | Print | Product List | Glossary On
Versions: 1 2 3 4 5 6 7 8 9 10 11 12 13 14 15 16 17 18 19 20 21 22 23 24 25 26 27 28 29 30 31 32 33 34 35 36 37 38 39 40 41 42 43 44 45 46 47 48 49 50
000
ASUS44 KFWD 260203
RWRTX
NORTH TEXAS HOURLY WEATHER ROUNDUP
NATIONAL WEATHER SERVICE FORT WORTH TX
900 PM CDT SAT OCT 25 2014

NOTE: "FAIR" INDICATES FEW OR NO CLOUDS BELOW 12,000 FEET WITH NO
SIGNIFICANT WEATHER AND/OR OBSTRUCTIONS TO VISIBILITY.

TXZ118-119-260300-
DALLAS/FORT WORTH METROPLEX

CITY           SKY/WX    TMP DP  RH WIND       PRES   REMARKS
DFW AIRPORT    CLEAR     79  59  50 S9        30.05R
DALLAS LOVE    CLEAR     80  60  50 S10       30.05R
FTW MEACHAM    CLEAR     77  60  55 S7        30.04S
DAL-EXECUTIVE  CLEAR     78  60  53 S6        30.05S
FTW-ALLIANCE   CLEAR     73  60  63 S7        30.04S
FTW-NAS-JRB    CLEAR     78  59  51 S10       30.09R
FTW-SPINKS     CLEAR     75  60  58 S7        30.07S
ARLINGTON      CLEAR     76  59  55 S6        30.05S
GRAND PRAIRIE  CLEAR     78  62  58 S3        30.07R
ADDISON        CLEAR     79  57  47 S6        30.05S
LANCASTER      CLEAR     73  59  61 S3        30.07S
$$

TXZ091>094-102>105-117-120-121-131>134-260300-
NORTH CENTRAL TEXAS

CITY           SKY/WX    TMP DP  RH WIND       PRES   REMARKS
SHRMAN/DENISON CLEAR     75  64  68 S8        30.05F
GAINESVILLE    CLEAR     72  62  69 SE5       30.07S
BRIDGEPORT     CLEAR     78  59  52 S8        30.06S
DECATUR        CLEAR     76  57  52 S8        30.06S
DENTON         CLEAR     72  60  66 S6        30.04S
MCKINNEY       CLEAR     71  61  70 S5        30.05S
GREENVILLE     CLEAR     70  61  73 S5        30.06S
ROCKWALL       CLEAR     75  62  63 S7        30.05S
TERRELL        CLEAR     74  62  66 S6        30.07R
WAXAHACHIE     CLEAR     73  60  63 CALM      30.08S
CLEBURNE       CLEAR     75  63  64 S7        30.08S
GRANBURY       CLEAR     77  61  57 SE6       30.07S
$$

TXZ083>090-098>101-113>116-127>130-139>142-154-155-260300-
WESTERN NORTH TEXAS

CITY           SKY/WX    TMP DP  RH WIND       PRES   REMARKS
WICHITA FALLS  CLEAR     72  56  57 S9        30.01S
WF-KICKAPOO    CLEAR     73  56  56 SE5       30.04R
VERNON         CLEAR     72  50  46 S7        30.03R
ABILENE        CLEAR     72  50  45 SE7       30.08S
ABILENE-DYESS  CLEAR     70  49  47 S3        30.07R
MINERAL WELLS  CLEAR     74  57  55 S7        30.04S
STEPHENVILLE   CLEAR     73  58  59 CALM      30.11S
COMANCHE       CLEAR     73  56  55 S7        30.09S
COLEMAN        CLEAR     75  55  50 S8        30.09S
BRADY          CLEAR     73  54  49 SE6       30.11R
$$

TXZ143>147-156>162-174-175-260300-
CENTRAL TEXAS

CITY           SKY/WX    TMP DP  RH WIND       PRES   REMARKS
WACO           CLEAR     76  60  57 SE9       30.07S
WACO-TSTC      CLEAR     73  63  68 SE3       30.07S
WACO-MCGREGOR  CLEAR     72  55  56 S7        30.09S
HILLSBORO      CLEAR     76  58  54 SE7       30.08S
CORSICANA      CLEAR     72  62  71 S7        30.08S
MEXIA          CLEAR     71  62  74 S3        30.08S
HEARNE         CLEAR     67  63  86 CALM      30.10R FOG
CAMERON        CLEAR     74  62  66 S6        30.09R
TEMPLE         CLEAR     72  55  56 SE8       30.08S
KILLEEN        CLEAR     73  58  60 S6        30.10R
KILLEEN-SKYLRK CLEAR     75  55  50 SE7       30.08S
FORT HOOD      CLEAR     75  60  59 SE3       30.09S
GATESVILLE     CLEAR     73  59  60 CALM      30.10S
HAMILTON       CLEAR     72  56  58 S7        30.11R
$$

TXZ095>097-106>112-122>126-135>138-148>153-164>167-260300-
EAST TEXAS

CITY           SKY/WX    TMP DP  RH WIND       PRES   REMARKS
PARIS          CLEAR     72  57  60 S5        30.06S
SULPHUR SPRNGS CLEAR     75  62  64 S7        30.08S
MOUNT PLEASANT CLEAR     69  65  86 SE3       30.08R
MINEOLA        CLEAR     75  64  69 S3        30.08R
TYLER          CLEAR     71  64  78 S7        30.08R
LONGVIEW       CLEAR     69  64  84 S5        30.07S
MARSHALL       CLEAR     68  65  90 CALM      30.09S
ATHENS         CLEAR     64  63  94 CALM      30.07S
PALESTINE      CLEAR     68  66  93 CALM      30.10R
JACKSONVILLE   CLEAR     74  64  71 S5        30.11S
HENDERSON      CLEAR     66  65  96 CALM      30.09S
NACOGDOCHES    CLEAR     64  63  94 CALM      30.10S
LUFKIN         CLEAR     69  64  84 CALM      30.10R
$$

SUPPLEMENTAL OBSERVATIONS (CENTRAL)

CITY           SKY/WX    TMP DP  RH WIND       PRES   REMARKS
$$

SUPPLEMENTAL OBSERVATIONS (WEST)

CITY           SKY/WX    TMP DP  RH WIND       PRES   REMARKS
$$

SUPPLEMENTAL OBSERVATIONS (EAST)

CITY           SKY/WX    TMP DP  RH WIND       PRES   REMARKS
$$

SUPPLEMENTAL OBSERVATIONS ARE A COLLECTION OF AUTOMATED INSTRUMENTS
THAT ARE MAINTAINED BY A VARIETY OF FEDERAL AND STATE AGENCIES.
CERTAIN ELEMENTS...SUCH AS HUMIDITY VALUES AND SUSTAINED WIND
SPEEDS...MAY BE APPROXIMATED.




USA.gov is the U.S. government's official web portal to all federal, state and local government web resources and services.